Joliet, IL

12:15 AM CDT on May 22, 2018 (GMT -0500)
Joliet Regional

Weather History for KJOT - December, 2013

Change the Weather History Date:

Sunday, December 29, 2013

  Actual Average (KARR) Record (KARR)
Temperature  
Mean Temperature 26 °F -  
Max Temperature 37 °F 29 °F 49 °F (2006)
Min Temperature 14 °F 13 °F -5 °F (2009)
Degree Days  
Heating Degree Days 40    
Moisture  
Dew Point 23 °F    
Average Humidity 82    
Maximum Humidity 94    
Minimum Humidity 72    
Precipitation  
Precipitation 0.00 in - - ()
Sea Level Pressure  
Sea Level Pressure 29.95 in    
Wind  
Wind Speed 7 mph (WNW)    
Max Wind Speed 13 mph    
Max Gust Speed 17 mph    
Visibility 8 miles    
Events Snow    
Averages and records for this station are not official NWS values.
T = Trace of Precipitation, MM = Missing Value Source: NWS Daily Summary

Daily Weather History Graph

Daily Weather History Graph

Search for Another Location

Airport or City:

Astronomy

Dec. 29, 2013 Rise Set
Actual Time 7:18 AM CST 4:31 PM CST
Civil Twilight 6:47 AM CST 5:02 PM CST
Nautical Twilight 6:12 AM CST 5:37 PM CST
Astronomical Twilight 5:38 AM CST 6:11 PM CST
Moon 4:01 AM CST (12/29) 2:09 PM CST (12/29)
Length of Visible Light 10h 15m
Length of Day
9h 12m
Waning Crescent, 11% of the Moon is Illuminated
Dec 29
Waning Crescent
Jan 1
New
Jan 7
First Quarter
Jan 15
Full
Jan 23
Last Quarter

Hourly Weather History & Observations

Time (CST) Temp. Windchill Dew Point Humidity Pressure Visibility Wind Dir Wind Speed Gust Speed Precip Events Conditions
12:15 AM 35.6 °F 28.6 °F 29.3 °F 78% 29.86 in 10.0 mi South 9.2 mph - N/A   Clear
12:35 AM 36.1 °F 29.9 °F 29.3 °F 76% 29.85 in 10.0 mi South 8.1 mph - N/A   Clear
12:55 AM 36.5 °F 31.0 °F 29.7 °F 76% 29.84 in 10.0 mi South 6.9 mph - N/A   Clear
1:15 AM 36.1 °F 30.6 °F 29.8 °F 78% 29.84 in 10.0 mi South 6.9 mph - N/A   Clear
1:35 AM 36.5 °F 30.3 °F 29.8 °F 77% 29.83 in 10.0 mi South 8.1 mph - N/A   Clear
1:55 AM 36.5 °F 31.0 °F 29.8 °F 77% 29.83 in 10.0 mi SSW 6.9 mph - N/A   Clear
2:15 AM 37.2 °F 31.2 °F 29.7 °F 74% 29.82 in 10.0 mi SSW 8.1 mph - N/A   Clear
2:35 AM 37.2 °F 30.6 °F 29.3 °F 73% 29.81 in 10.0 mi SSW 9.2 mph - N/A   Clear
2:55 AM 36.9 °F 31.4 °F 29.3 °F 74% 29.81 in 10.0 mi SSW 6.9 mph - N/A   Clear
3:15 AM 36.1 °F 31.4 °F 29.3 °F 76% 29.80 in 10.0 mi SSW 5.8 mph - N/A   Clear
3:35 AM 35.6 °F 29.9 °F 29.3 °F 78% 29.80 in 10.0 mi SSW 6.9 mph - N/A   Clear
3:55 AM 35.6 °F 32.8 °F 29.1 °F 77% 29.79 in 10.0 mi SSW 3.5 mph - N/A   Clear
4:15 AM 34.7 °F 31.8 °F 29.1 °F 80% 29.80 in 10.0 mi SSW 3.5 mph - N/A   Clear
4:35 AM 34.0 °F - 28.9 °F 82% 29.79 in 10.0 mi Calm Calm - N/A   Clear
4:55 AM 33.3 °F 30.2 °F 28.4 °F 82% 29.79 in 10.0 mi SW 3.5 mph - N/A   Clear
5:15 AM 33.4 °F 30.4 °F 29.1 °F 84% 29.80 in 10.0 mi SSW 3.5 mph - N/A   Clear
5:35 AM 34.7 °F 29.6 °F 29.5 °F 81% 29.80 in 10.0 mi SW 5.8 mph - N/A   Clear
5:55 AM 35.1 °F 30.1 °F 29.3 °F 80% 29.79 in 10.0 mi WSW 5.8 mph - N/A   Clear
6:15 AM 34.5 °F 30.4 °F 29.3 °F 81% 29.80 in 10.0 mi WSW 4.6 mph - N/A   Clear
6:35 AM 33.8 °F 27.7 °F 29.1 °F 83% 29.81 in 10.0 mi West 6.9 mph - N/A   Clear
6:55 AM 32.9 °F 27.5 °F 28.8 °F 85% 29.81 in 10.0 mi West 5.8 mph - N/A   Clear
7:15 AM 32.0 °F 25.6 °F 28.4 °F 87% 29.81 in 10.0 mi West 6.9 mph - N/A   Clear
7:35 AM 31.6 °F 26.0 °F 28.4 °F 88% 29.82 in 10.0 mi West 5.8 mph - N/A   Scattered Clouds
7:55 AM 31.8 °F 27.3 °F 28.4 °F 87% 29.83 in 10.0 mi WNW 4.6 mph - N/A   Mostly Cloudy
8:15 AM 32.0 °F 24.8 °F 29.3 °F 90% 29.83 in 7.0 mi WNW 8.1 mph - N/A   Overcast
8:35 AM 32.9 °F 26.7 °F 30.2 °F 90% 29.84 in 7.0 mi WNW 6.9 mph - N/A   Scattered Clouds
8:55 AM 33.4 °F 26.6 °F 30.6 °F 89% 29.84 in 7.0 mi West 8.1 mph - N/A   Clear
9:15 AM 34.0 °F 28.0 °F 30.7 °F 88% 29.85 in 7.0 mi WNW 6.9 mph - N/A   Scattered Clouds
9:35 AM 34.3 °F 28.4 °F 30.7 °F 87% 29.86 in 7.0 mi NW 6.9 mph - N/A   Scattered Clouds
9:55 AM 34.7 °F 28.1 °F 30.2 °F 84% 29.87 in 5.0 mi NW 8.1 mph - N/A   Haze
10:15 AM 34.7 °F 28.1 °F 29.8 °F 82% 29.88 in 4.0 mi NW 8.1 mph - N/A   Haze
10:35 AM 34.2 °F 26.8 °F 30.2 °F 85% 29.88 in 4.0 mi WNW 9.2 mph - N/A   Mostly Cloudy
10:55 AM 32.5 °F 26.2 °F 30.7 °F 93% 29.88 in 1.5 mi NW 6.9 mph - N/A   Overcast
11:15 AM 32.0 °F 23.6 °F 30.2 °F 93% 29.89 in 1.5 mi North 10.4 mph 17.3 mph N/A   Drizzle
11:35 AM 31.3 °F 23.9 °F 29.3 °F 92% 29.90 in 4.0 mi NNE 8.1 mph - N/A   Light Freezing Rain
11:55 AM 31.5 °F 24.9 °F 30.0 °F 94% 29.91 in 1.8 mi North 6.9 mph - N/A   Light Freezing Rain
12:15 PM 30.2 °F 20.2 °F 28.4 °F 93% 29.91 in 1.5 mi North 12.7 mph - N/A   Light Freezing Rain
12:35 PM 29.8 °F 20.9 °F 28.0 °F 93% 29.92 in 2.0 mi North 10.4 mph - N/A   Light Freezing Rain
12:55 PM 29.3 °F 20.2 °F 27.5 °F 93% 29.92 in 2.0 mi NNW 10.4 mph - N/A   Overcast
1:15 PM 28.6 °F 18.2 °F 26.8 °F 93% 29.94 in 1.5 mi NNW 12.7 mph - N/A   Overcast
1:35 PM 27.5 °F 18.6 °F 25.5 °F 92% 29.95 in 2.5 mi NNW 9.2 mph 17.3 mph N/A   Overcast
1:55 PM 27.3 °F 19.9 °F 24.8 °F 90% 29.95 in 7.0 mi North 6.9 mph - N/A   Overcast
2:15 PM 27.3 °F 17.7 °F 24.8 °F 90% 29.95 in 7.0 mi NNW 10.4 mph - N/A   Overcast
2:35 PM 26.2 °F 17.1 °F 23.9 °F 91% 29.97 in 2.5 mi NW 9.2 mph - N/A   Overcast
2:55 PM 25.5 °F 16.9 °F 22.8 °F 89% 29.98 in 4.0 mi NW 8.1 mph - N/A   Overcast
3:15 PM 24.8 °F 16.1 °F 21.9 °F 89% 30.00 in 5.0 mi NNW 8.1 mph - N/A   Overcast
3:35 PM 24.3 °F 14.6 °F 19.9 °F 84% 30.02 in 10.0 mi NNW 9.2 mph 17.3 mph N/A   Overcast
3:55 PM 23.9 °F 12.9 °F 19.8 °F 84% 30.03 in 10.0 mi NW 11.5 mph 17.3 mph N/A   Overcast
4:15 PM 23.2 °F 13.3 °F 18.3 °F 82% 30.04 in 10.0 mi NNW 9.2 mph 17.3 mph N/A   Overcast
4:35 PM 23.0 °F 13.9 °F 18.1 °F 82% 30.05 in 10.0 mi NW 8.1 mph - N/A   Overcast
4:55 PM 22.8 °F 12.2 °F 17.6 °F 80% 30.06 in 10.0 mi NNW 10.4 mph - N/A   Overcast
5:15 PM 22.1 °F 12.8 °F 16.2 °F 78% 30.07 in 10.0 mi NNW 8.1 mph 17.3 mph N/A   Overcast
5:35 PM 22.1 °F 13.7 °F 15.8 °F 77% 30.08 in 10.0 mi NNW 6.9 mph - N/A   Overcast
5:55 PM 21.7 °F 14.3 °F 14.9 °F 75% 30.09 in 10.0 mi NW 5.8 mph - N/A   Overcast
6:15 PM 21.6 °F 12.1 °F 14.5 °F 74% 30.09 in 10.0 mi NNW 8.1 mph - N/A   Overcast
6:35 PM 21.6 °F 12.1 °F 14.7 °F 75% 30.10 in 10.0 mi NW 8.1 mph - N/A   Overcast
6:55 PM 21.6 °F 13.0 °F 14.7 °F 75% 30.11 in 10.0 mi NW 6.9 mph - N/A   Overcast
7:15 PM 21.6 °F 13.0 °F 14.2 °F 73% 30.11 in 10.0 mi NW 6.9 mph - N/A   Overcast
7:35 PM 21.2 °F 10.9 °F 14.5 °F 75% 30.12 in 7.0 mi NW 9.2 mph 16.1 mph N/A Snow Light Snow
7:55 PM 20.1 °F 10.3 °F 15.8 °F 83% 30.13 in 1.0 mi WNW 8.1 mph - N/A Snow Light Snow
8:15 PM 19.2 °F 8.4 °F 14.4 °F 81% 30.14 in 2.5 mi WNW 9.2 mph 17.3 mph N/A Snow Light Snow
8:35 PM 19.0 °F 9.0 °F 14.0 °F 81% 30.14 in 4.0 mi NW 8.1 mph - N/A Snow Light Snow
8:55 PM 18.5 °F 9.3 °F 14.0 °F 83% 30.14 in 2.5 mi WNW 6.9 mph - N/A Snow Light Snow
9:15 PM 17.6 °F 7.3 °F 13.6 °F 84% 30.15 in 1.5 mi WNW 8.1 mph - N/A Snow Light Snow
9:35 PM 17.6 °F 7.3 °F 10.9 °F 75% 30.15 in 10.0 mi NW 8.1 mph - N/A   Overcast
9:55 PM 17.2 °F 6.8 °F 10.4 °F 75% 30.16 in 10.0 mi NW 8.1 mph - N/A   Overcast
10:15 PM 16.3 °F 4.9 °F 9.5 °F 74% 30.17 in 10.0 mi NW 9.2 mph - N/A   Overcast
10:35 PM 15.8 °F 6.1 °F 9.3 °F 76% 30.17 in 10.0 mi NNW 6.9 mph - N/A   Overcast
10:55 PM 15.3 °F 6.6 °F 7.7 °F 72% 30.18 in 10.0 mi NW 5.8 mph - N/A   Overcast
11:15 PM 14.9 °F 4.0 °F 7.5 °F 73% 30.19 in 10.0 mi NW 8.1 mph - N/A   Overcast
11:35 PM 14.5 °F 5.7 °F 7.7 °F 74% 30.19 in 10.0 mi NW 5.8 mph - N/A   Overcast
11:55 PM 14.0 °F 6.5 °F 7.3 °F 75% 30.20 in 10.0 mi WNW 4.6 mph - N/A   Overcast